This is the latest recevied weather packets stored in our database for station/object KK4EQF-12. If no packets are shown the sender has not sent any weather packets the latest 10 day(s).
| Time | Temp. | Humidity | Pressure | Rain* | Wind** | Luminosity | Snow |
|---|---|---|---|---|---|---|---|
| 1777478153 | 26.11° C | 100% | 1014.7 hPa | 0 mm | - | - | - |
| 1777477853 | 26.11° C | 100% | 1015 hPa | 0 mm | - | - | - |
| 1777477552 | 26.67° C | 100% | 1015 hPa | 0 mm | - | - | - |
| 1777477252 | 26.67° C | 100% | 1015 hPa | 0 mm | - | - | - |
| 1777476952 | 26.67° C | 100% | 1014.9 hPa | 0 mm | - | - | - |
| 1777476652 | 26.67° C | 100% | 1014.9 hPa | 0 mm | - | - | - |
| 1777476351 | 26.67° C | 100% | 1014.9 hPa | 0 mm | - | - | - |
| 1777476051 | 26.67° C | 100% | 1014.7 hPa | 0 mm | - | - | - |
| 1777475751 | 26.67° C | 100% | 1014.7 hPa | 0 mm | - | - | - |
| 1777475450 | 26.67° C | 100% | 1014.7 hPa | 0 mm | - | - | - |
| 1777475150 | 26.67° C | 100% | 1014.7 hPa | 0 mm | - | - | - |
| 1777474850 | 27.22° C | 100% | 1014.7 hPa | 0 mm | - | - | - |
| 1777474550 | 26.67° C | 100% | 1014.7 hPa | 0 mm | - | - | - |
| 1777474249 | 26.67° C | 100% | 1014.5 hPa | 0 mm | - | - | - |
| 1777473949 | 26.11° C | 100% | 1014.5 hPa | 0 mm | - | - | - |
| 1777473649 | 26.11° C | 100% | 1014.5 hPa | 0 mm | - | - | - |
| 1777473348 | 26.11° C | 100% | 1014.6 hPa | 0 mm | - | - | - |
| 1777473048 | 25.56° C | 100% | 1014.6 hPa | 0 mm | - | - | - |
| 1777472748 | 25.56° C | 100% | 1014.6 hPa | 0 mm | - | - | - |
| 1777472447 | 25.56° C | 100% | 1014.8 hPa | 0 mm | - | - | - |
| 1777472147 | 25.56° C | 100% | 1014.8 hPa | 0 mm | - | - | - |
| 1777471847 | 25.56° C | 100% | 1014.8 hPa | 0 mm | - | - | - |
| 1777471547 | 25.56° C | 100% | 1014.8 hPa | 0 mm | - | - | - |
| 1777471246 | 25.56° C | 100% | 1014.8 hPa | 0 mm | - | - | - |
| 1777470946 | 25.56° C | 100% | 1014.8 hPa | 0 mm | - | - | - |
* Rain latest hour (hover to see other rain measurements)
** Current wind speed in m/s (hover to see current wind gust speed)